Theta_e
302 303 304 304 304 305 306 306 307 307 308 308 308 308 309 309 309 309 309 310 311 312 313 314 315 316 316 317 317 317 316 316 316 316 316 317 317 317 318 319 320 319 319 319 320 320 321 321 321 321 322 322 322 321 320 321 321 320 320 320 320 319 318 317 317 316 316 315 314 314 314 314 314 313 313 313 313 313 311 309 306 303 300 299 298
301 303 304 304 304 305 306 306 306 306 306 306 307 306 307 307 307 308 308 309 309 309 309 310 310 311 311 311 312 313 313 313 314 313 313 313 314 314 313 313 314 315 316 317 318 318 318 318 318 319 320 320 319 319 319 319 319 319 319 318 318 318 317 317 316 315 315 314 314 313 313 313 312 312 312 312 312 312 312 311 310 307 304 301 299
301 303 303 304 304 305 305 305 305 305 306 305 306 306 306 306 306 306 307 307 307 307 307 307 307 307 307 307 308 308 308 308 308 308 307 308 308 308 308 308 309 309 310 311 313 314 315 315 315 316 317 317 317 317 318 318 317 317 316 316 316 316 316 315 315 314 314 313 313 311 311 311 311 311 311 311 311 311 311 311 311 310 307 303 300
301 303 304 304 304 305 305 305 305 305 306 306 306 306 306 306 306 307 306 306 307 307 307 306 306 306 306 306 306 306 306 305 305 305 305 305 304 304 305 305 305 305 305 305 306 306 307 308 309 311 312 312 313 313 314 314 314 314 314 314 314 314 314 314 313 313 312 312 311 310 309 309 309 309 309 310 310 310 310 310 310 309 307 303 301
302 303 304 304 304 305 305 305 306 306 306 306 306 306 306 306 306 306 306 306 306 306 306 306 306 306 306 306 306 305 305 304 304 304 304 304 304 304 304 304 304 304 304 304 304 304 304 304 305 305 305 305 306 307 307 308 309 310 311 311 311 311 312 312 311 311 311 310 309 307 307 306 305 306 306 307 308 308 309 309 309 309 308 306 305
302 303 303 304 304 305 305 305 305 305 305 305 305 304 304 304 304 304 304 304 304 304 304 305 305 305 305 305 305 305 305 305 305 305 304 304 304 304 304 304 304 304 304 304 304 304 304 304 304 304 304 303 303 303 303 304 305 306 307 307 308 308 309 309 309 309 308 308 308 306 304 303 302 303 303 303 306 307 307 307 307 308 308 308 309
302 303 303 304 304 304 304 304 304 304 303 303 303 303 303 303 303 303 303 303 302 302 303 303 303 303 303 303 304 303 304 303 303 304 304 304 304 304 304 304 304 304 304 304 304 304 303 303 303 303 303 303 303 302 302 302 302 302 303 303 304 305 306 306 306 306 306 306 306 305 304 302 301 301 301 301 302 305 306 305 305 305 306 306 307
302 302 303 303 303 303 303 303 303 302 302 302 302 302 302 302 302 302 302 302 302 302 302 302 302 302 302 302 302 302 302 302 302 302 302 302 303 303 303 303 303 303 303 303 303 302 302 302 302 302 302 302 301 302 301 301 301 300 300 300 300 301 302 302 303 303 303 304 304 304 304 303 303 302 301 300 298 300 303 305 304 304 304 304 305
302 302 302 302 302 302 302 302 302 302 301 301 301 301 301 301 301 301 302 301 301 301 301 301 301 301 301 301 301 301 301 301 301 301 301 301 301 301 301 301 301 301 301 301 301 301 301 300 300 300 300 300 300 300 299 299 299 299 299 299 299 299 299 299 299 300 300 301 301 301 302 302 302 302 302 301 299 298 300 302 303 303 303 303 303
301 302 302 302 302 302 302 302 301 301 301 301 301 301 300 301 301 301 301 301 300 300 300 300 300 300 300 300 300 300 300 300 300 300 300 300 300 300 300 300 299 299 299 299 299 299 298 298 298 298 298 297 297 297 297 296 296 296 295 295 295 295 295 296 296 296 297 297 298 298 299 299 299 300 300 301 300 299 299 300 301 301 302 302 302
301 301 301 301 301 301 301 301 301 301 300 300 300 300 300 300 300 300 300 300 300 300 299 299 299 299 299 299 299 299 299 298 298 298 298 298 298 298 297 297 297 297 296 296 296 295 295 294 294 294 293 293 294 293 293 293 292 291 291 291 291 291 291 291 291 291 292 292 292 293 294 295 295 296 297 298 298 299 298 298 299 300 299 300 301
300 301 301 301 301 301 301 301 300 300 300 300 299 299 299 299 299 299 299 299 299 299 299 299 299 299 299 298 298 298 298 297 297 297 296 296 295 295 294 294 294 293 293 293 292 292 291 291 291 291 291 291 291 291 290 290 290 290 289 289 289 289 289 289 289 289 289 288 289 289 289 289 290 291 292 293 294 295 296 296 297 297 297 298 298
300 301 301 301 301 301 300 300 300 300 299 299 299 299 299 298 298 298 298 298 298 298 298 298 298 298 298 298 297 297 297 297 296 296 295 294 294 293 292 292 292 292 291 291 291 291 290 290 290 290 290 290 290 289 289 289 289 289 289 289 289 289 288 288 288 288 288 288 288 288 287 287 287 287 288 288 289 290 291 292 292 293 294 295 295
300 300 301 301 301 300 300 300 299 299 299 299 298 298 298 298 298 298 298 297 297 297 297 297 297 297 297 297 297 296 296 296 295 295 294 293 293 292 292 291 291 291 291 290 290 290 289 289 289 289 289 289 289 289 289 289 289 289 288 288 288 288 288 288 288 288 287 288 288 287 288 287 287 287 287 287 287 287 287 287 288 288 289 290 290
300 300 300 300 300 300 300 299 299 299 298 298 298 298 298 297 297 297 297 297 297 297 296 296 296 296 296 296 296 295 295 295 294 294 293 293 292 291 291 291 290 290 290 289 289 288 288 288 288 288 288 288 288 288 288 288 288 288 288 288 288 288 288 288 288 288 288 288 288 288 288 287 287 287 287 287 287 286 286 286 286 286 286 287 287
300 300 300 300 300 300 299 299 298 298 298 298 298 297 297 297 297 297 297 296 296 296 296 295 295 295 295 295 294 294 294 293 293 293 292 292 291 291 291 290 290 290 289 289 288 288 288 287 287 287 287 287 287 288 288 288 288 288 288 288 288 288 288 288 288 288 288 288 288 288 288 288 288 287 287 287 287 287 286 286 286 286 286 286 286
300 300 300 300 300 299 299 299 298 298 298 297 297 297 297 296 296 296 296 295 295 295 295 294 294 294 294 293 293 293 293 292 292 291 291 291 291 290 290 290 289 289 289 288 288 288 288 288 287 287 287 288 288 288 288 287 287 287 287 288 288 288 288 288 288 288 288 288 288 288 288 288 288 288 288 287 287 287 287 286 286 286 285 286 286
300 300 299 299 299 299 299 298 298 297 297 297 297 296 296 296 295 295 295 295 294 294 294 294 293 293 292 292 292 291 291 291 290 290 290 290 290 289 289 289 289 288 288 288 288 288 288 288 288 288 288 288 288 288 288 288 288 288 288 288 288 288 288 288 288 288 288 288 288 288 288 288 288 288 288 288 287 287 287 286 286 286 285 285 285
299 299 299 299 299 299 299 298 297 297 297 296 296 296 296 295 295 294 294 294 294 293 293 292 292 291 291 290 290 290 289 289 289 289 288 288 288 288 288 287 287 287 287 287 287 287 287 287 287 287 287 287 287 287 287 287 288 287 288 288 288 288 288 288 288 288 288 288 288 288 288 288 288 288 288 288 288 287 287 286 286 285 285 285 285
300 300 300 299 299 299 298 298 297 297 296 296 295 295 295 294 294 294 293 293 292 292 291 291 290 290 289 289 289 289 288 288 288 288 288 288 287 287 287 287 287 287 287 287 287 287 287 286 286 286 286 286 287 287 287 287 287 287 287 287 287 287 288 288 288 288 288 288 288 288 288 288 288 288 288 287 287 287 287 287 286 286 285 285 284
300 300 299 299 299 298 298 297 296 296 296 295 295 294 294 294 293 293 292 292 291 291 290 290 289 289 288 288 288 288 288 288 288 288 287 287 287 287 287 287 286 286 286 286 286 286 286 286 286 286 286 286 286 286 286 286 287 287 287 287 287 287 287 287 287 287 288 287 288 288 288 288 288 288 288 287 287 287 287 287 287 286 286 285 285
300 299 299 299 299 298 297 297 296 296 296 295 294 294 293 293 292 292 291 291 290 290 289 289 288 288 288 288 288 288 288 287 287 287 287 287 287 287 287 286 286 286 286 286 286 286 286 286 286 286 286 286 286 286 286 286 286 287 287 287 287 287 287 287 287 287 287 287 287 287 287 287 287 287 287 287 287 287 287 287 287 286 286 286 286
299 299 299 299 299 298 297 297 297 297 296 295 294 294 293 292 292 291 291 290 290 289 289 288 288 288 288 287 287 287 287 287 287 287 287 287 287 287 287 287 287 286 286 286 286 286 286 286 286 286 286 286 286 286 286 286 286 286 286 286 287 287 287 287 287 287 287 287 287 287 287 287 286 286 287 287 287 287 287 286 287 286 286 286 286
299 300 300 299 299 298 297 297 297 297 296 295 294 293 293 292 291 291 290 289 289 289 288 288 287 287 287 287 287 287 287 287 287 287 288 288 288 288 287 287 287 287 287 287 287 286 286 286 286 286 286 286 286 286 286 286 286 286 286 286 286 286 286 286 287 287 287 287 287 287 287 286 286 286 286 286 286 286 286 286 286 286 286 286 286
300 300 300 299 299 298 298 298 297 297 296 295 295 294 293 292 291 290 289 289 288 288 288 287 287 287 287 287 287 288 288 288 288 288 288 288 288 288 288 288 288 288 288 288 287 287 286 286 286 286 285 285 285 285 285 285 285 285 285 286 286 286 286 286 286 286 286 286 286 286 286 286 286 286 286 286 286 286 286 286 286 286 286 285 285
301 301 300 299 299 299 298 298 297 296 296 296 295 294 293 292 291 290 289 288 288 288 287 287 287 287 287 287 288 288 288 288 288 288 288 288 288 288 288 288 288 288 288 288 288 287 287 286 286 285 285 285 285 285 285 285 285 285 285 285 285 285 285 286 286 286 286 286 285 286 285 285 285 285 285 285 285 285 285 285 285 285 285 284 284
301 300 299 299 299 300 299 298 297 296 296 296 295 295 293 292 291 290 289 288 288 287 287 287 287 287 287 288 288 288 288 288 288 288 288 288 288 288 288 288 288 288 288 288 288 287 287 286 285 285 285 285 285 285 285 285 285 285 285 285 285 285 285 285 285 285 285 285 285 285 285 285 285 284 285 284 284 283 283 283 283 283 283 283 283
299 299 299 299 300 300 299 298 297 296 296 296 295 295 293 292 291 290 290 289 288 287 287 287 287 287 287 288 288 288 289 289 289 289 288 288 288 288 288 288 288 288 288 288 288 287 287 286 285 285 285 285 284 284 284 284 284 284 284 284 284 285 285 285 285 285 285 285 285 285 285 285 284 284 284 283 282 282 281 281 281 280 280 280 281
299 299 299 299 300 300 299 299 297 296 296 296 295 295 294 292 291 290 290 289 288 287 287 287 287 287 288 288 288 289 289 289 289 289 289 288 288 288 288 288 288 288 288 288 288 287 287 286 285 285 285 284 284 284 284 284 284 284 284 284 284 284 284 285 285 285 285 285 285 285 284 284 284 284 283 282 281 280 279 279 279 278 278 278 278
301 300 301 300 300 299 299 298 297 297 297 296 296 295 294 293 291 290 290 289 288 287 287 287 287 288 288 288 288 289 289 289 289 289 289 288 288 288 288 288 288 288 288 288 288 287 287 286 285 285 284 284 284 284 283 283 283 283 283 284 284 284 284 284 284 285 285 284 284 284 284 284 283 283 282 281 280 279 278 277 277 277 276 276 277
302 301 301 301 300 299 298 298 298 298 298 296 296 295 294 293 291 291 290 289 287 287 287 287 287 288 288 288 288 289 289 289 289 289 289 289 288 288 288 288 288 288 288 288 288 287 287 286 285 284 284 284 283 283 283 283 283 283 283 283 284 284 284 284 284 284 284 284 284 283 283 283 282 281 280 280 279 278 278 277 277 277 276 276 276
301 301 301 301 300 299 298 298 298 298 297 296 296 295 294 293 292 291 289 288 287 287 287 288 288 288 288 289 289 289 289 289 289 289 289 289 288 288 288 288 288 287 287 287 287 287 286 285 284 284 284 283 283 283 283 282 283 283 283 283 283 283 283 283 283 283 283 283 282 282 281 281 280 280 279 278 278 278 278 278 278 277 276 275 275
300 300 299 298 297 296 296 296 296 297 297 296 295 294 293 293 292 290 289 288 288 288 288 288 288 288 289 289 289 289 289 289 289 289 289 288 288 288 288 288 287 287 287 287 287 286 285 284 284 284 283 283 283 282 282 282 283 283 282 282 282 283 283 283 282 282 281 281 281 280 280 279 279 278 277 277 277 277 277 277 277 276 275 274 273
299 298 297 296 295 294 294 294 295 296 296 295 294 294 293 292 291 290 289 288 288 288 288 289 289 289 289 289 289 289 289 289 289 289 288 288 288 288 287 287 287 287 287 286 286 285 284 284 283 283 283 283 282 282 282 282 282 282 282 282 282 282 282 282 281 281 280 280 279 278 278 277 277 276 276 276 276 276 275 275 274 273 272 271 272
297 296 295 294 294 294 294 294 294 295 295 295 294 293 293 292 290 290 289 289 289 289 289 289 289 289 289 289 289 289 289 289 288 288 288 288 288 287 287 287 287 287 286 286 285 284 284 283 283 282 282 282 282 282 282 282 282 282 281 281 281 281 281 281 281 280 279 279 278 277 276 276 275 275 275 275 275 274 274 273 272 271 271 271 271
296 295 294 293 293 293 293 293 294 294 294 294 293 293 292 291 291 290 290 290 290 290 290 289 289 289 289 289 289 289 289 288 288 288 288 287 287 287 287 287 287 286 286 285 284 283 283 283 282 282 282 282 282 282 282 282 282 281 281 281 281 281 280 280 280 279 278 277 277 276 275 274 274 274 274 274 274 273 272 271 271 271 272 272 272
294 293 293 293 293 292 292 292 292 292 292 292 292 291 291 291 291 291 291 291 291 291 290 290 289 289 289 289 289 288 288 288 288 287 287 287 287 287 287 287 286 286 285 285 284 283 283 282 282 282 282 282 282 282 282 282 281 281 280 280 280 280 279 279 279 278 277 276 275 274 273 273 273 273 274 274 273 272 272 272 272 272 272 272 272
293 293 293 292 292 292 291 291 291 291 291 290 290 290 290 290 290 290 290 290 290 290 290 289 289 289 289 289 288 288 288 287 287 287 287 287 287 287 287 286 286 286 285 284 283 283 282 282 282 281 281 282 282 282 281 281 281 280 279 279 279 279 278 278 278 277 276 276 275 274 273 273 273 273 273 273 272 272 273 273 273 273 273 273 273
292 292 292 292 292 291 291 291 290 290 290 290 290 289 289 289 289 289 289 289 289 289 289 289 289 289 288 288 288 288 287 287 287 287 287 287 287 287 286 286 285 285 284 283 282 282 282 281 281 281 281 281 282 281 281 280 280 279 278 278 278 278 278 277 277 277 276 275 274 274 273 273 273 273 273 273 273 273 273 273 273 274 274 274 275
292 292 292 291 291 291 291 291 290 290 290 290 290 289 289 289 288 288 289 289 289 289 289 289 288 288 288 288 287 287 287 287 287 287 287 286 286 286 286 285 284 284 283 282 282 281 281 281 281 281 281 281 281 281 281 280 279 278 278 277 277 277 277 277 277 276 275 274 273 272 273 273 273 273 273 273 273 274 274 275 275 275 275 275 276
292 292 291 291 291 291 291 291 291 291 290 290 290 290 289 289 288 288 288 288 288 288 288 288 288 288 288 287 287 287 287 287 287 286 286 286 286 285 285 284 283 283 282 281 281 281 281 281 281 281 281 281 281 281 280 279 279 278 277 277 277 276 276 276 276 274 272 272 272 272 272 273 273 273 273 274 274 275 276 276 276 276 276 276 276
292 291 291 291 291 291 291 291 291 291 290 290 290 290 289 289 289 289 288 288 288 288 288 288 288 288 287 287 287 287 286 286 286 286 286 286 285 285 284 283 282 282 281 281 281 280 280 281 281 281 281 281 280 280 279 279 278 277 277 277 276 276 276 275 274 273 272 272 272 272 272 272 273 273 274 274 275 276 276 276 276 276 277 277 277
291 291 291 291 291 291 290 290 290 290 290 290 290 290 289 289 289 289 288 288 288 288 288 288 287 287 287 287 286 286 286 286 286 286 286 285 285 284 283 282 281 281 281 280 280 280 280 280 281 281 281 280 280 279 279 278 278 277 277 277 276 276 275 274 273 272 272 272 272 272 272 273 273 274 275 275 275 276 276 276 276 276 276 276 276
291 291 291 290 290 290 290 290 290 290 290 290 290 289 289 289 288 288 288 288 288 288 287 287 287 287 286 286 286 286 286 286 285 285 285 285 284 283 282 281 280 280 280 280 280 280 280 280 281 281 280 280 279 279 278 278 277 277 277 277 276 275 274 273 272 272 271 271 272 272 272 273 274 275 275 275 275 276 275 275 275 276 276 276 275
291 291 291 290 290 290 290 290 290 290 290 290 289 289 289 288 288 288 288 288 288 287 287 287 286 286 286 286 286 285 285 285 285 284 284 284 283 282 281 280 280 279 279 279 279 279 279 280 280 280 280 279 279 278 278 277 277 277 277 276 276 275 274 272 271 271 271 272 272 272 273 273 274 274 274 274 275 275 275 275 275 275 275 275 275
291 291 290 290 290 290 290 290 290 290 290 290 289 289 288 288 288 288 288 288 287 287 287 286 286 286 285 285 285 285 285 284 284 284 283 282 281 281 280 280 279 279 278 279 279 279 279 279 279 279 279 279 278 278 277 277 277 277 276 276 276 275 273 271 271 271 271 272 272 273 273 273 273 274 274 274 274 274 274 274 274 275 274 274 274
291 290 290 290 290 290 290 290 290 290 290 289 289 288 288 288 288 288 288 287 287 286 286 286 285 285 285 285 285 284 284 284 283 283 282 281 280 280 280 279 279 278 278 278 278 278 278 278 278 278 278 278 278 277 277 276 276 276 276 275 274 272 272 271 271 271 271 272 273 273 273 273 273 273 273 273 273 273 273 273 274 274 274 274 274
291 291 290 290 290 290 290 290 290 290 290 289 288 288 288 288 288 288 287 287 287 286 286 285 285 285 285 284 284 284 284 283 282 282 281 280 280 279 279 279 278 278 278 278 278 278 277 277 277 277 277 277 277 276 276 275 275 274 273 272 271 271 271 271 271 272 272 273 273 273 273 273 274 273 273 272 272 272 272 272 273 274 274 274 275
291 291 290 290 290 290 290 290 290 290 289 289 288 288 288 288 288 287 287 287 286 286 285 285 285 284 284 284 284 283 283 283 282 281 280 279 279 279 279 278 278 277 277 277 277 277 277 276 276 276 276 275 275 275 275 274 274 272 271 271 271 271 271 271 272 272 272 272 272 273 273 273 273 273 273 273 272 272 273 273 273 274 274 274 275
290 290 290 290 290 290 290 290 290 290 289 288 288 288 288 288 288 287 287 286 286 286 285 285 284 284 284 283 283 283 282 281 281 280 279 279 279 278 278 278 277 277 276 276 276 276 276 275 275 275 274 273 273 274 274 274 274 272 271 270 270 270 270 271 272 272 272 272 272 272 272 273 272 272 272 272 272 273 273 273 274 274 274 274 274
290 290 290 291 290 290 290 290 290 289 289 288 288 288 288 288 287 287 286 286 286 285 285 284 284 283 283 283 282 282 281 280 279 279 279 279 279 278 277 276 276 276 276 276 275 275 275 274 273 273 273 273 273 274 274 274 273 272 270 270 270 271 271 272 272 272 272 272 272 272 272 272 272 271 271 271 271 272 272 272 273 274 274 275 275
Wind_Speed
4 3 4 5 6 6 6 7 7 6 7 7 7 8 9 9 9 9 10 9 8 8 6 5 4 3 2 2 2 3 2 1 1 1 2 3 4 5 6 7 7 8 9 10 10 11 13 14 14 13 12 12 12 11 10 11 13 14 15 14 14 14 16 16 17 19 21 22 23 24 24 25 26 27 26 24 23 22 22 22 23 24 26 27 27
5 5 6 7 8 9 10 10 10 11 12 13 13 14 14 13 14 14 13 12 11 11 9 8 8 7 6 6 6 4 4 3 3 3 3 3 4 5 6 7 7 8 8 10 11 12 14 15 15 15 16 16 16 15 14 14 14 14 15 15 15 16 16 16 18 20 21 22 24 26 27 26 27 27 27 26 25 24 23 22 22 22 22 23 25
7 8 10 11 13 14 15 16 17 18 19 20 21 21 20 20 20 20 18 17 17 16 14 15 15 13 12 12 10 8 8 8 7 7 6 5 4 4 4 4 5 6 6 7 9 11 13 14 14 15 16 18 19 19 19 19 19 18 18 18 18 17 17 17 17 18 19 20 21 22 24 27 28 26 24 24 24 24 24 24 24 22 21 21 22
11 13 15 17 18 20 22 23 23 23 24 24 24 24 24 24 24 23 22 21 21 20 19 19 18 17 16 14 13 12 13 12 10 10 9 8 7 7 7 6 6 6 5 5 6 6 7 8 9 11 12 13 15 16 17 18 18 18 18 18 18 18 17 17 17 18 18 18 17 17 19 22 22 21 25 27 25 25 25 23 23 22 21 21 21
16 18 20 21 23 25 26 26 25 25 25 25 25 25 25 24 24 23 23 22 22 21 20 19 17 17 16 15 14 14 14 13 11 12 12 10 10 10 10 9 9 8 7 7 7 7 7 7 7 7 8 8 9 10 11 12 13 14 15 16 17 17 17 17 17 17 17 16 15 15 15 15 17 22 29 31 27 25 25 25 24 23 24 24 24
19 22 23 24 25 26 26 25 24 24 25 25 24 24 24 23 23 22 22 22 22 21 20 18 16 16 15 14 13 12 12 12 12 13 12 11 12 11 11 10 10 9 9 8 8 8 7 7 7 7 7 8 8 9 10 10 11 12 13 13 14 15 16 16 17 18 17 16 15 14 13 14 19 24 26 29 33 33 30 29 29 28 29 29 30
22 23 24 24 25 25 25 24 24 24 24 23 22 22 21 21 21 20 21 21 21 20 18 16 15 14 13 12 11 10 10 12 13 12 12 12 11 9 9 9 9 9 9 9 8 8 8 8 8 8 8 8 8 9 9 10 11 12 12 13 13 14 15 15 16 17 17 16 16 16 15 16 18 20 22 26 33 38 36 33 32 32 32 32 33
22 23 23 24 23 23 24 23 23 23 22 21 20 20 19 19 19 19 19 19 19 17 15 14 13 13 12 11 10 10 11 11 11 9 9 9 7 7 7 7 7 8 8 8 9 9 9 9 9 9 9 9 9 10 10 10 11 11 11 12 13 13 14 14 15 17 17 17 17 18 18 19 19 20 21 22 25 33 40 40 38 36 35 35 35
22 22 23 23 22 22 22 22 22 21 20 19 18 17 17 16 16 16 17 17 17 15 13 13 12 11 11 10 9 9 10 9 8 7 6 6 5 5 5 5 6 6 6 7 7 8 8 9 9 9 9 10 11 12 12 12 12 12 12 12 12 12 13 14 14 16 17 18 19 20 20 21 21 21 22 22 22 26 34 40 42 41 40 38 36
22 22 23 22 22 22 21 20 19 18 17 16 16 15 15 14 13 13 15 15 14 13 11 11 11 10 9 9 9 9 8 7 6 4 4 4 3 4 4 4 5 5 6 6 6 7 8 8 9 9 10 11 11 11 12 13 14 14 14 14 14 14 14 14 14 14 15 16 17 19 20 20 21 22 22 23 25 26 29 35 40 43 45 44 41
23 23 23 22 21 20 19 18 17 16 15 14 14 13 12 12 10 11 13 13 12 11 10 10 10 9 9 9 8 8 7 5 4 3 4 3 3 4 4 4 5 5 6 6 6 7 7 9 9 10 10 10 10 11 12 13 14 15 15 15 15 15 15 15 15 15 15 16 16 17 17 18 19 20 21 22 24 27 30 34 37 40 45 47 45
23 23 23 22 21 19 18 16 15 14 13 12 11 11 10 10 8 9 12 11 9 9 9 9 8 7 8 7 7 6 5 4 4 4 4 4 5 4 4 4 5 5 5 6 6 7 8 9 9 10 10 11 11 12 12 13 13 14 14 15 15 16 16 16 16 17 17 17 18 18 18 18 18 18 19 20 21 24 27 32 35 36 41 44 44
24 24 23 22 20 19 17 15 14 13 12 10 9 8 8 8 7 7 9 8 7 7 7 7 6 6 6 5 5 5 4 4 5 5 5 5 5 4 4 4 4 4 4 5 6 7 8 8 9 10 10 11 12 12 12 13 13 14 15 15 16 17 17 18 19 19 20 20 20 21 20 20 20 20 20 20 21 22 24 28 30 30 35 39 39
25 25 24 22 20 18 16 14 13 12 10 9 8 7 6 6 6 5 6 7 5 4 5 5 4 4 3 3 4 4 4 5 5 5 5 5 5 4 4 5 5 5 6 7 7 8 8 9 9 10 10 10 11 11 12 13 13 14 15 16 16 17 18 19 19 20 21 21 22 22 23 23 23 23 23 23 23 23 24 26 29 30 34 37 37
26 25 24 23 21 19 17 14 13 11 10 8 7 6 4 4 4 3 4 4 3 2 3 2 2 2 2 3 3 4 5 5 6 6 6 6 6 6 7 7 8 8 9 9 8 8 8 8 9 9 9 9 10 10 11 11 12 13 14 15 16 17 18 18 19 20 21 22 23 24 25 25 25 25 25 25 25 25 25 25 27 30 35 39 40
28 27 25 23 21 19 17 15 13 11 10 8 7 5 4 3 3 2 2 2 2 2 1 0 0 1 2 3 3 4 5 5 5 5 6 6 6 7 7 8 9 9 10 9 9 9 9 8 8 9 9 10 11 11 12 12 12 13 14 15 16 17 18 19 21 22 23 25 26 27 28 28 28 28 28 28 27 27 28 27 26 26 30 36 40
29 27 25 24 22 20 18 16 14 12 10 8 7 6 5 4 4 3 3 4 4 3 2 2 2 2 3 4 4 5 5 5 5 6 6 6 6 7 7 8 8 9 9 9 9 9 9 9 10 10 11 12 13 14 14 14 15 16 16 17 18 19 19 21 22 24 25 27 28 29 31 31 31 31 31 31 30 30 30 29 29 27 26 29 33
29 28 26 24 23 21 18 16 14 13 11 9 8 8 7 6 6 6 6 6 5 5 4 4 5 5 5 6 6 6 6 6 6 6 7 6 6 7 7 7 8 8 9 9 9 9 10 10 11 12 13 14 14 15 16 17 17 19 20 21 22 23 23 24 25 26 27 29 30 31 33 34 34 34 34 33 33 32 32 31 31 30 29 30 30
31 29 28 26 24 21 19 17 16 14 13 11 10 9 9 9 9 9 9 8 7 7 7 8 8 8 8 8 7 7 7 7 6 6 6 5 6 6 6 7 7 8 8 9 9 10 10 11 11 12 13 14 15 16 17 18 19 20 21 23 24 25 27 27 28 30 31 33 34 34 35 35 36 36 36 36 35 34 34 33 33 33 32 33 33
34 32 30 27 25 22 20 18 16 15 14 13 12 11 11 11 12 12 11 10 10 10 10 10 10 9 9 8 8 7 7 6 5 5 5 5 6 7 8 9 9 9 10 10 11 11 12 12 13 14 14 15 16 17 19 20 21 22 22 24 25 26 27 28 29 31 33 35 37 38 39 40 40 40 39 38 37 36 36 36 35 36 35 35 36
36 34 31 28 25 23 21 19 17 16 15 14 14 13 13 14 14 14 13 13 13 12 12 11 10 10 9 8 7 7 6 6 5 5 6 7 8 9 10 11 12 12 13 13 14 15 15 16 16 17 18 18 19 20 21 22 23 24 25 26 27 28 28 29 30 30 31 33 36 38 39 41 42 43 43 42 42 40 38 38 37 37 38 37 38
37 33 29 27 26 24 23 21 20 18 17 16 16 16 16 16 16 16 15 14 14 13 12 11 11 10 9 8 7 6 5 5 5 6 8 9 11 12 13 14 15 15 16 17 18 18 19 19 20 20 21 22 23 23 24 26 27 27 28 29 30 31 31 32 32 33 33 34 36 37 38 39 39 41 42 43 44 44 43 43 41 40 40 40 39
33 31 29 28 27 25 24 23 21 20 18 18 18 18 17 17 18 17 16 15 15 14 13 12 11 9 8 7 6 5 5 6 7 8 10 11 13 14 15 16 17 18 20 21 21 22 22 23 23 23 24 25 26 27 27 29 30 31 32 32 33 34 34 35 35 36 36 37 38 39 39 39 39 40 40 40 41 43 44 46 46 45 45 44 42
31 31 30 29 28 27 27 25 23 22 20 20 19 19 18 19 19 18 17 16 15 13 12 11 10 8 7 6 6 6 7 8 9 10 11 13 14 16 17 19 20 22 23 24 25 26 26 26 27 27 28 28 29 30 31 32 33 34 35 35 36 36 37 37 38 38 39 40 41 42 42 43 42 42 42 41 40 41 42 44 47 48 49 49 48
31 32 32 31 31 31 30 28 26 24 22 20 19 19 19 20 19 19 18 16 15 13 12 10 9 8 7 7 7 8 8 9 10 11 13 14 16 18 20 22 23 24 26 26 27 29 29 29 30 30 31 31 32 33 34 35 36 36 38 38 39 39 39 40 40 41 42 42 43 45 45 46 46 46 47 46 45 44 44 45 46 47 49 50 51
34 35 34 34 33 33 32 31 29 26 24 21 20 19 20 20 20 19 18 17 15 13 12 11 10 9 9 9 9 9 10 11 12 13 15 16 19 21 23 24 26 26 27 28 28 29 30 30 31 31 32 33 34 35 36 37 38 39 39 40 41 41 42 42 42 43 44 45 46 47 47 47 48 49 50 50 50 49 48 48 48 48 49 49 50
36 36 36 35 35 34 33 32 31 28 25 22 20 20 20 21 21 20 19 17 15 15 14 12 12 11 11 11 11 11 12 13 14 16 17 19 21 23 25 27 28 28 29 29 29 30 30 31 31 32 33 34 35 36 37 38 39 40 41 42 42 43 43 43 43 44 44 46 47 48 49 49 49 50 51 51 51 50 50 50 49 48 47 47 48
35 36 37 37 36 35 33 32 31 29 26 23 21 21 21 22 22 20 19 18 17 16 16 14 14 14 14 13 13 13 14 15 16 18 19 21 23 25 28 30 30 31 31 31 31 32 32 32 32 33 34 35 36 37 38 39 40 41 42 43 43 44 44 44 44 45 45 46 47 48 49 50 50 51 51 51 50 49 48 49 49 45 43 44 46
35 36 37 37 37 37 35 33 31 28 26 23 22 22 23 23 23 22 21 19 18 18 18 16 16 16 16 16 15 15 15 17 18 20 21 23 25 27 30 31 32 32 33 33 33 34 34 34 34 34 35 36 37 38 40 41 42 43 43 44 44 45 45 46 46 46 47 48 49 49 50 51 51 51 51 50 49 47 44 45 46 43 40 40 42
30 32 33 33 34 35 35 33 30 27 26 25 24 23 24 24 23 23 22 20 20 20 19 18 18 18 18 18 18 17 18 19 20 22 23 24 26 28 31 33 33 33 34 34 35 36 36 36 36 36 37 38 39 40 41 41 42 43 44 44 45 45 46 47 48 49 49 50 51 52 52 52 52 51 51 49 47 45 42 41 41 39 37 36 38
25 26 27 27 26 26 27 27 26 25 26 26 24 23 23 24 23 23 22 21 21 20 19 19 19 20 20 21 20 20 21 22 22 23 25 25 27 29 32 34 34 35 35 35 36 37 37 37 37 38 39 40 41 41 41 42 42 42 44 44 46 46 47 48 49 50 52 52 53 53 53 53 52 51 50 48 46 45 42 40 38 37 34 33 34
23 23 21 19 17 16 17 18 18 20 22 23 23 23 23 23 23 22 21 21 21 21 21 21 21 22 23 24 23 24 24 24 25 25 26 26 28 30 32 34 35 36 36 37 37 37 37 38 39 40 41 41 41 41 41 42 42 42 43 44 46 47 48 49 50 51 52 53 53 53 52 52 51 50 48 47 45 43 40 38 37 35 32 30 30
17 15 13 12 11 11 12 13 14 16 18 19 20 21 21 21 20 20 20 21 22 22 23 23 24 25 26 26 26 27 27 27 27 27 27 27 28 30 33 35 36 37 37 38 38 38 38 39 40 41 41 41 41 41 41 42 42 43 43 44 45 47 48 49 50 50 51 52 52 52 51 51 50 48 46 44 43 41 39 37 36 34 32 30 27
13 12 12 11 11 12 13 14 15 16 16 15 17 19 19 18 18 19 21 22 23 24 25 26 27 28 29 29 29 29 29 29 29 28 28 28 29 31 33 35 36 37 38 38 38 38 38 39 40 41 42 41 41 41 41 41 42 43 43 44 45 47 48 48 49 49 50 50 50 49 49 48 47 45 44 42 41 39 37 35 34 32 30 29 27
13 13 13 13 14 14 15 16 17 17 16 16 17 18 17 17 18 20 21 23 25 27 28 29 30 31 32 32 31 31 30 30 29 28 28 29 30 33 34 35 36 37 38 38 38 39 39 40 41 41 41 41 41 41 41 41 42 42 43 44 45 46 47 48 49 49 48 49 48 47 46 45 45 43 41 39 36 34 33 33 33 32 31 31 30
13 13 14 14 14 14 15 16 16 16 16 16 16 16 15 16 18 21 23 26 28 29 31 32 32 33 32 32 32 31 31 30 29 28 28 30 32 34 35 36 37 38 39 39 39 39 40 41 41 41 41 41 41 40 40 41 42 42 43 44 45 46 47 48 48 48 47 47 46 45 43 42 42 42 39 34 30 29 30 33 34 35 36 36 35
13 13 13 13 13 13 13 14 15 15 14 13 13 13 15 17 20 23 25 27 29 30 31 31 31 31 30 30 31 31 30 29 28 28 29 31 33 35 36 37 38 39 39 39 39 40 41 41 41 41 41 41 41 40 40 40 41 42 42 43 45 46 47 47 47 46 46 45 43 41 40 40 40 39 36 31 28 29 32 36 38 39 39 39 38
13 13 13 12 12 12 12 13 14 13 12 11 11 13 16 19 22 24 25 26 27 28 28 28 28 28 28 29 30 30 29 29 28 29 31 33 35 36 37 38 39 40 40 40 40 40 41 41 40 40 40 41 41 40 39 40 41 40 41 42 44 45 46 46 46 45 44 43 41 39 36 36 37 37 34 31 30 31 34 36 38 39 39 39 39
13 13 12 11 12 12 12 14 14 12 11 11 13 14 16 18 20 22 24 25 25 26 27 27 28 28 29 29 29 29 29 28 29 31 33 35 36 37 37 38 39 40 40 39 40 40 41 40 39 39 39 40 40 40 39 39 40 39 40 40 42 43 44 44 43 43 43 42 40 39 36 34 34 34 32 30 30 32 33 34 35 37 39 40 39
13 12 12 13 14 14 15 16 14 12 13 13 15 16 17 18 18 19 21 22 23 25 26 27 29 29 29 29 29 29 29 29 31 33 34 36 37 37 37 38 39 39 39 39 40 40 40 39 38 38 39 39 39 39 39 39 39 39 38 38 39 41 41 42 42 41 42 43 42 41 38 34 31 31 31 30 30 29 30 32 34 36 40 41 40
13 13 15 15 16 18 18 17 15 14 15 16 18 19 19 18 18 19 20 21 22 24 26 28 30 30 30 30 29 30 30 31 32 34 36 36 36 36 37 38 38 38 38 39 39 38 38 38 38 38 38 38 38 39 39 39 38 38 37 36 36 38 38 38 40 40 40 42 42 41 39 36 34 32 31 30 30 28 28 32 35 38 41 41 40
15 15 17 18 20 21 20 19 17 17 18 20 20 21 21 20 20 20 21 22 23 25 27 28 30 30 30 30 30 30 31 32 33 35 36 36 35 36 37 37 37 38 38 38 38 37 37 38 38 38 38 38 38 39 39 38 37 36 35 34 34 34 33 33 36 38 39 40 40 40 39 38 36 35 33 33 32 31 32 35 37 38 39 38 39
16 16 19 20 23 24 23 21 20 20 21 22 22 22 22 21 22 22 22 24 26 27 28 29 30 30 30 30 31 31 31 33 34 35 35 35 35 35 36 36 36 37 37 37 36 36 36 37 38 38 38 38 38 39 39 38 37 36 35 33 32 32 30 29 33 37 39 40 41 42 41 40 38 37 37 36 36 35 36 38 39 38 38 39 40
17 18 21 22 25 26 25 25 24 24 24 23 23 23 22 22 22 23 24 26 28 28 29 29 30 30 30 31 31 31 32 33 34 34 34 34 35 34 34 35 35 36 36 36 35 35 35 37 38 38 38 38 39 40 39 37 36 36 35 34 32 31 30 29 31 35 38 40 42 42 42 41 40 38 38 38 37 37 38 38 39 38 38 39 40
19 21 22 23 24 26 27 28 28 26 26 25 25 24 23 22 23 24 26 28 29 30 30 30 30 30 30 30 31 31 32 33 33 33 34 34 33 33 33 34 34 34 33 34 34 34 35 36 38 39 39 39 40 41 39 37 36 35 34 34 33 32 31 30 31 35 38 39 40 40 40 41 40 39 39 39 38 39 39 39 38 38 38 39 41
22 23 23 24 25 26 28 30 30 29 28 28 26 24 23 22 23 25 27 29 30 31 30 30 30 30 30 30 31 31 32 32 32 32 33 32 32 32 33 34 33 32 32 33 33 33 34 36 37 38 39 40 40 40 39 36 34 34 34 33 33 33 33 32 33 35 37 38 39 40 40 40 39 38 38 39 40 40 39 39 40 39 39 40 41
24 24 24 26 26 27 28 29 30 30 30 29 27 24 22 23 24 26 28 30 31 31 31 30 30 30 30 31 32 32 31 31 31 31 31 31 31 32 33 33 32 32 32 32 32 33 34 35 36 37 38 39 40 39 37 35 33 33 34 34 34 35 36 36 36 37 38 39 40 40 39 39 40 40 39 39 39 39 38 39 40 40 39 39 39
26 25 25 27 28 30 30 30 30 31 31 29 26 23 22 23 25 27 29 31 32 32 31 31 30 30 31 31 32 32 32 31 31 30 30 30 31 31 32 32 31 30 31 32 32 33 33 33 35 36 37 39 39 38 36 34 33 33 33 33 34 35 36 37 37 37 37 38 40 42 43 43 43 43 41 38 37 36 37 38 38 37 37 36 35
27 27 26 26 28 30 31 30 29 29 30 29 25 23 23 24 26 28 29 31 32 32 32 31 31 31 31 32 32 32 32 31 31 30 29 30 30 30 31 31 30 28 29 30 31 32 32 32 34 35 36 37 39 37 34 32 31 29 29 30 32 33 34 34 34 34 35 39 43 44 42 41 40 40 39 38 37 36 36 35 34 34 33 32 31
27 28 26 25 26 28 30 29 28 27 29 29 26 24 24 25 27 28 29 31 32 33 32 32 31 31 31 32 32 31 31 31 30 30 30 30 30 29 29 30 30 29 28 28 30 31 31 30 32 33 32 32 34 34 32 30 29 28 27 27 29 30 31 32 33 34 36 40 42 41 39 37 38 39 39 37 36 35 35 34 34 32 31 30 30
25 25 25 25 26 27 28 27 26 28 30 30 27 25 25 27 28 28 29 31 32 33 33 32 31 31 31 31 31 30 30 29 29 29 30 31 31 30 28 26 27 29 29 27 27 28 28 27 28 30 30 31 31 30 29 28 27 26 26 27 29 30 31 32 33 35 37 38 37 36 36 36 35 35 35 34 34 33 33 33 33 32 31 30 29
Wind_Direction
97 99 110 113 119 117 114 110 102 101 100 102 106 104 99 98 102 98 92 90 92 94 92 94 90 73 74 63 75 96 93 17 320 287 264 266 261 261 260 257 259 261 263 265 265 267 274 279 284 292 297 296 295 293 286 277 271 267 266 265 269 279 286 288 289 289 289 290 288 286 285 285 287 287 288 287 286 285 283 281 277 272 270 269 270
113 114 113 112 112 110 107 106 106 107 109 110 108 104 103 103 102 97 95 97 94 91 91 93 91 82 78 76 73 80 81 62 40 34 18 350 320 304 302 298 292 284 273 266 266 268 271 274 273 271 275 281 287 293 295 292 289 286 284 282 282 284 285 286 286 288 291 294 295 293 291 288 285 285 287 288 287 287 287 287 285 282 279 274 272
127 119 113 111 109 107 108 109 110 110 109 107 104 103 104 103 100 99 99 99 94 91 89 87 85 81 79 78 75 80 85 79 71 68 61 47 32 15 3 351 341 327 308 294 283 278 277 278 278 274 272 275 278 281 283 287 289 290 290 290 290 290 290 290 290 293 294 297 300 301 301 299 295 292 288 283 283 285 286 289 289 287 284 278 275
124 118 115 114 112 111 110 109 107 106 104 102 102 101 101 99 98 98 97 95 93 91 88 83 82 81 81 81 83 84 82 79 78 77 73 69 66 60 52 45 30 14 2 348 330 317 307 299 293 287 283 280 278 277 279 281 283 285 287 288 289 290 291 294 296 298 299 300 303 303 305 306 304 302 295 288 285 284 283 283 284 283 280 278 278
122 119 117 115 114 111 109 107 105 104 102 100 99 98 97 96 95 95 93 92 90 88 85 82 81 80 79 78 76 76 79 81 78 75 74 68 62 56 49 44 35 25 19 13 5 359 351 341 334 324 316 308 300 296 293 291 290 289 289 288 289 290 291 294 296 297 299 303 305 306 308 306 302 303 302 298 292 287 284 282 280 279 278 278 278
124 121 120 117 114 112 109 108 107 104 101 98 96 94 93 92 91 90 88 86 84 80 78 76 74 73 73 74 75 77 80 78 69 65 63 56 49 46 41 35 29 22 16 11 7 4 359 355 350 344 340 335 331 328 322 317 311 305 302 298 295 293 293 294 293 292 295 299 299 299 297 295 297 303 306 303 298 294 291 288 285 283 281 279 279
129 124 121 118 115 114 112 110 107 102 98 95 93 92 91 90 89 88 86 83 80 78 77 75 73 74 72 72 74 72 65 62 60 55 51 48 44 40 37 31 25 20 14 11 7 4 2 359 356 352 348 346 342 338 334 331 328 324 321 316 311 306 301 300 299 296 295 294 293 294 292 290 294 300 304 305 304 301 297 295 293 291 289 286 283
133 128 124 122 119 117 113 109 105 100 97 96 94 92 90 89 88 87 86 85 83 81 81 79 75 73 69 62 62 60 57 60 61 55 52 51 41 35 34 27 22 19 14 14 12 11 10 8 10 8 5 5 1 357 356 354 350 345 339 332 327 323 318 315 312 308 305 301 296 295 294 294 295 297 301 305 308 305 299 298 298 297 295 292 289
137 133 129 127 124 119 114 109 104 101 100 98 95 93 90 88 87 86 86 84 84 82 79 76 71 67 63 55 55 58 58 61 61 55 52 46 27 23 23 15 16 13 10 13 13 14 15 15 16 14 14 17 15 15 14 12 10 6 4 0 355 351 346 340 331 324 320 315 309 304 300 297 296 296 299 300 302 304 301 299 299 299 297 294 293
142 139 136 132 127 121 116 112 108 106 104 99 96 93 90 87 86 85 83 81 80 78 71 68 65 59 55 49 50 57 59 61 60 47 41 35 13 6 7 7 8 4 5 8 7 11 14 13 12 11 14 17 16 17 16 13 14 14 15 16 15 14 12 9 2 354 346 338 330 322 316 311 307 303 301 299 299 300 301 300 299 300 300 298 297
149 146 142 137 131 126 121 118 115 111 106 102 98 95 92 90 84 77 78 76 74 72 62 57 56 48 44 43 44 51 56 56 42 24 25 15 358 1 4 2 2 3 7 5 3 10 13 12 13 14 15 15 14 15 13 13 15 15 16 15 15 16 17 17 15 11 6 1 356 350 344 338 331 322 314 308 303 300 300 299 297 298 299 296 296
157 152 147 141 136 132 129 125 121 116 111 107 104 100 95 91 82 71 73 74 69 67 58 50 49 42 37 37 34 36 36 20 358 357 1 354 355 6 7 6 8 7 8 7 8 15 17 15 16 16 15 14 14 15 14 14 13 11 10 9 9 9 9 9 8 5 4 2 1 360 358 355 350 342 333 326 317 310 305 302 302 301 299 298 300
163 157 151 147 143 139 137 133 128 123 121 118 112 109 101 92 83 71 71 74 69 66 58 47 43 36 28 19 9 7 357 343 338 340 344 347 358 8 8 9 8 3 2 2 6 14 13 10 9 9 9 11 12 12 11 9 7 5 4 4 4 3 2 2 2 360 358 356 355 353 352 351 348 344 340 337 332 326 319 314 314 311 305 305 309
168 163 157 154 151 147 145 143 139 134 133 132 125 118 111 98 89 75 72 75 70 65 55 45 39 28 9 351 343 337 329 328 328 330 334 339 344 350 351 354 357 357 359 0 5 8 7 5 6 6 7 7 7 6 4 2 359 357 357 357 358 359 358 357 355 354 352 350 348 346 345 344 341 338 335 333 330 328 326 323 322 319 314 313 315
174 168 165 162 157 154 154 153 151 149 146 147 143 136 131 121 107 86 79 82 80 80 63 45 40 15 345 331 325 316 312 314 314 317 321 325 330 336 340 345 349 352 357 1 4 4 3 5 6 5 4 3 1 360 357 355 351 349 348 347 348 349 348 348 347 346 345 343 342 340 339 339 336 332 329 327 325 322 321 321 320 320 318 316 316
179 175 172 169 165 163 164 164 163 163 161 162 163 159 158 160 152 128 119 126 137 148 127 87 65 334 308 294 295 293 293 295 297 300 303 308 315 322 328 334 338 342 346 348 349 353 356 358 358 357 356 354 352 352 350 348 345 342 340 338 338 339 338 338 338 337 338 337 337 335 334 334 332 329 326 323 321 317 315 315 313 314 314 313 314
182 179 177 174 172 172 173 173 173 174 174 176 179 182 184 192 199 200 198 194 194 195 195 206 219 248 257 255 263 266 268 273 274 277 283 289 295 302 309 314 319 321 322 324 328 332 335 336 336 335 335 335 335 335 335 335 335 333 333 332 331 331 332 332 332 331 331 330 330 330 330 329 328 326 323 320 317 314 311 309 306 305 304 304 305
186 184 182 181 180 180 179 180 183 184 187 190 194 198 200 206 213 215 217 213 209 209 212 218 222 230 234 234 240 243 244 250 253 258 265 269 273 279 286 290 294 298 300 303 306 309 311 312 313 314 315 318 319 320 320 321 322 322 323 324 324 324 324 326 326 326 326 325 325 325 325 324 324 322 321 318 315 312 308 305 302 300 297 295 294
192 190 188 187 186 186 186 186 190 193 196 200 203 209 213 216 220 220 222 221 218 218 218 219 220 222 226 226 228 231 232 238 242 246 253 259 269 278 286 292 295 296 296 296 296 298 300 301 304 308 311 313 315 315 316 316 317 317 317 318 318 318 318 319 320 321 322 322 321 321 321 321 321 319 318 316 313 310 307 304 300 297 294 292 291
194 192 191 191 190 191 193 194 197 200 203 207 211 215 218 222 224 224 225 224 221 220 219 219 220 220 221 221 223 227 231 239 246 257 271 283 294 301 306 308 307 306 305 304 303 303 304 305 308 309 311 313 314 314 314 315 315 315 315 315 315 315 315 315 316 317 318 319 318 319 319 320 320 318 317 314 312 309 306 304 301 298 295 292 291
196 195 195 195 195 197 199 201 204 207 211 214 216 220 222 225 227 226 226 224 222 223 221 221 221 220 223 225 230 239 249 264 277 293 306 313 317 319 319 317 315 314 312 310 310 310 309 310 311 311 312 312 312 312 313 313 313 312 313 313 312 312 312 312 313 313 314 315 315 316 316 317 317 317 316 314 312 309 306 303 301 299 297 295 294
200 199 199 200 201 203 205 206 208 212 216 218 221 225 225 227 228 227 226 225 224 225 224 224 225 225 231 236 243 255 267 286 307 319 325 328 328 328 326 323 321 319 317 316 315 314 314 313 313 313 312 312 312 312 312 312 312 312 312 312 312 312 312 311 311 312 312 312 313 313 314 313 313 312 312 311 310 308 307 305 302 300 298 296 295
205 203 204 206 208 210 212 213 215 217 220 222 225 228 228 230 230 229 228 227 227 227 226 227 229 231 236 241 249 267 288 309 322 327 329 330 330 329 328 326 324 322 320 319 317 316 316 315 315 315 314 314 314 313 314 314 314 313 313 313 313 312 312 311 311 311 311 312 312 312 312 311 310 309 307 306 304 304 303 303 302 301 299 297 295
209 208 210 213 215 218 218 219 221 222 223 226 228 230 231 232 232 232 231 230 229 231 230 230 231 232 239 251 268 287 303 314 320 323 324 327 328 327 327 325 323 322 320 319 318 317 317 316 316 316 316 316 315 315 316 315 315 315 315 314 314 313 312 312 311 311 311 311 312 312 312 311 310 308 306 304 302 300 298 298 297 297 298 297 296
212 213 217 219 220 223 223 224 225 226 228 230 232 234 235 235 236 235 233 231 232 234 233 232 232 238 249 263 279 292 301 307 311 315 319 323 326 327 327 325 323 322 320 319 318 318 317 316 316 316 316 316 316 316 316 316 316 316 315 315 314 313 312 312 311 312 312 312 312 312 312 312 311 309 307 306 303 301 298 296 294 293 293 293 294
214 217 222 224 225 227 227 228 229 230 232 234 237 239 239 238 239 237 235 234 235 235 234 233 237 245 254 264 275 285 292 299 305 311 316 321 325 327 328 326 324 322 319 318 317 316 315 314 313 314 314 314 314 314 314 315 315 315 314 313 313 312 312 311 311 311 312 313 313 312 312 311 310 309 308 307 305 303 301 298 296 293 291 290 289
219 223 228 229 230 231 231 233 234 234 236 239 242 245 245 243 241 239 239 237 235 236 236 238 242 248 256 263 272 281 289 298 306 313 318 322 325 327 327 326 324 322 319 317 316 314 313 311 311 311 312 312 312 313 313 313 313 313 312 311 311 311 310 310 310 310 311 311 311 310 310 309 309 308 307 306 305 304 302 300 298 296 293 291 289
225 228 232 234 235 236 237 238 238 238 239 242 246 249 249 247 245 244 243 241 239 240 240 241 246 251 258 266 273 282 292 303 310 315 318 320 323 324 325 325 323 321 319 317 315 314 313 311 310 310 311 311 311 311 311 312 311 311 311 310 310 309 309 308 308 308 309 309 308 308 307 307 307 306 306 305 304 304 303 301 299 297 295 292 289
231 233 237 240 243 243 244 244 242 241 242 244 247 249 249 248 246 243 244 245 243 242 242 244 248 255 262 269 275 285 296 304 308 312 314 317 320 322 324 323 322 320 318 316 315 314 313 311 310 310 310 311 310 310 311 311 311 311 310 310 309 309 309 308 308 308 308 308 308 307 306 306 306 305 305 305 304 303 302 300 298 297 295 292 290
241 243 247 251 253 253 251 250 247 247 248 248 248 249 251 250 247 245 246 247 244 243 244 248 253 259 265 270 276 286 295 300 303 307 310 313 316 320 322 322 320 318 316 315 314 313 312 310 309 309 310 310 310 310 310 311 312 312 311 310 309 309 310 310 309 310 309 309 309 308 307 306 306 306 306 305 304 302 299 296 295 293 291 289 288
256 258 261 263 263 259 255 250 249 251 251 250 250 251 253 252 250 249 250 247 244 245 249 251 256 261 266 271 278 284 290 295 299 303 305 308 312 315 319 321 320 317 315 314 313 311 310 309 309 309 309 309 309 309 310 311 311 311 311 311 311 310 311 311 311 311 310 310 309 309 308 308 308 308 307 306 305 303 301 299 296 293 288 282 278
265 265 265 263 257 251 249 248 248 250 251 250 250 252 253 253 253 253 251 245 244 247 250 252 256 260 265 271 276 280 286 291 295 298 299 301 306 311 316 318 318 316 314 313 312 310 309 308 307 308 308 308 308 309 310 310 311 311 312 312 312 312 312 312 312 312 311 311 310 310 310 310 309 310 310 309 308 307 305 304 301 297 293 287 279
259 253 246 242 239 242 248 250 252 254 255 255 254 255 257 258 258 256 251 245 245 248 250 252 255 259 264 270 274 278 283 287 289 292 293 296 301 307 312 315 316 315 313 312 311 309 308 306 306 307 307 307 308 309 310 311 311 312 313 313 313 312 312 312 312 312 311 311 311 312 312 312 313 313 313 312 312 311 310 308 305 303 301 298 292
234 229 229 235 243 247 249 248 248 250 252 254 254 255 258 258 257 254 250 248 249 251 252 254 255 259 263 268 273 277 280 282 284 286 288 292 299 305 310 313 313 313 312 310 309 307 306 306 306 307 308 308 309 310 311 311 312 312 314 314 313 313 313 313 312 312 312 312 313 313 313 314 315 314 314 315 316 316 314 311 307 304 302 300 296
226 231 237 243 246 247 247 244 242 240 240 243 246 248 249 248 250 251 251 253 255 255 256 257 258 261 264 268 272 274 275 277 278 281 286 292 298 305 309 311 311 311 310 309 308 306 306 307 308 309 309 309 310 311 311 312 312 313 314 314 313 314 313 313 313 313 314 313 314 314 315 316 315 315 315 317 318 316 312 307 304 302 301 301 297
235 239 244 246 245 243 241 238 237 236 237 240 242 242 242 244 249 253 256 258 260 260 261 262 262 264 266 268 270 271 271 272 275 280 286 293 300 305 309 310 310 310 309 309 307 307 308 309 309 310 309 309 310 311 312 312 312 313 314 314 314 314 314 314 314 315 314 314 314 315 316 316 314 313 315 317 319 316 308 303 303 304 304 303 300
239 242 244 242 239 238 235 233 233 232 234 239 242 244 248 252 256 259 262 264 265 265 266 266 266 267 267 268 268 268 268 270 274 282 289 295 301 306 308 309 309 309 309 308 307 308 309 310 310 310 310 310 310 311 312 312 313 314 315 315 315 315 314 314 314 314 314 313 314 314 315 314 312 312 316 320 319 311 302 300 302 302 301 299 299
244 242 241 238 236 234 229 226 225 226 234 248 259 262 262 261 261 264 268 270 271 272 272 271 270 269 268 267 266 265 266 271 277 285 291 297 303 306 307 307 308 308 308 307 307 308 309 309 310 310 310 310 310 311 312 313 313 315 316 316 316 315 315 314 314 314 313 312 313 313 315 315 313 314 318 317 308 300 297 296 297 297 296 296 297
244 239 238 235 230 227 226 226 228 238 257 273 281 280 275 270 268 267 269 270 272 274 275 273 271 269 267 265 264 265 268 274 282 288 294 300 304 305 305 306 306 306 306 307 308 308 309 309 309 309 309 309 309 310 312 313 314 316 317 318 317 315 315 314 313 311 311 311 313 314 315 316 314 314 317 313 301 295 294 294 294 294 293 294 297
240 235 234 230 231 237 242 243 246 260 277 286 289 287 284 280 276 272 271 271 271 273 273 271 269 267 265 264 264 267 272 278 285 291 297 301 303 304 304 305 305 305 306 307 308 308 308 308 309 309 309 309 309 310 312 313 315 318 318 317 315 313 312 312 310 311 312 313 313 313 315 317 317 317 317 312 304 299 298 297 297 295 294 296 301
235 234 236 238 245 252 253 253 258 272 283 288 287 286 285 283 280 279 280 278 274 272 271 269 268 266 265 265 266 270 276 282 288 294 299 301 301 303 304 304 304 305 306 307 307 307 308 308 309 309 308 309 310 311 312 314 317 318 317 315 312 311 311 311 310 310 309 307 307 309 311 315 318 318 316 311 307 305 301 297 295 295 295 298 300
230 235 244 250 256 256 253 255 264 275 281 283 282 280 281 280 280 282 283 279 274 272 270 268 267 265 265 266 269 273 278 285 291 295 298 299 301 302 303 303 303 304 305 306 306 307 307 308 309 308 308 309 310 311 312 314 317 317 315 312 310 310 310 309 306 305 303 303 304 307 309 312 315 315 313 311 309 306 301 296 293 293 294 294 294
236 247 258 261 260 257 255 259 265 271 274 275 275 275 275 277 279 281 279 276 273 271 269 267 266 265 266 267 271 275 282 288 293 296 297 299 300 301 301 302 303 303 304 305 306 306 307 308 308 308 309 310 310 310 312 315 317 316 314 314 313 312 311 308 304 303 303 304 305 306 309 313 316 314 311 308 306 303 299 294 292 291 291 291 291
249 260 264 263 260 258 257 260 264 267 269 271 271 271 272 274 277 278 275 274 272 270 268 267 266 266 267 269 273 279 286 291 293 295 296 298 299 300 300 301 302 302 303 304 305 306 306 307 308 308 309 310 310 310 313 316 318 317 316 317 317 314 314 313 306 303 303 305 306 307 309 310 310 308 304 301 299 297 294 293 292 291 290 291 292
258 262 261 260 259 259 258 260 263 265 267 268 268 268 271 276 278 277 275 273 271 269 267 267 267 267 269 273 278 284 289 292 293 294 296 297 298 299 300 300 301 302 303 303 305 306 306 306 307 308 309 309 309 311 314 318 320 319 319 319 317 316 318 316 307 303 303 303 303 304 304 303 304 304 303 303 302 300 298 297 296 294 293 293 294
260 260 259 258 258 258 258 260 262 263 265 266 266 267 273 278 280 278 276 274 271 269 268 268 268 270 272 277 283 287 290 291 292 294 295 297 298 298 299 301 302 303 303 303 304 305 304 305 306 306 307 308 309 311 315 319 321 320 319 319 319 320 322 317 308 303 303 305 308 311 310 308 307 306 305 304 303 301 299 298 298 298 298 299 300
263 265 262 258 257 258 258 260 262 264 264 263 262 267 275 280 281 279 277 274 271 269 269 269 270 273 276 282 286 289 290 291 292 294 295 296 297 299 300 302 303 303 303 303 304 304 303 304 305 305 306 307 308 312 317 322 323 322 322 323 323 322 321 316 311 309 312 315 316 312 306 302 302 302 301 300 299 298 298 300 302 304 304 303 303
265 267 264 261 261 260 260 261 263 263 262 259 260 268 277 280 281 280 277 274 271 269 269 270 272 275 280 284 287 288 289 290 291 293 293 295 297 300 301 302 303 303 303 303 303 302 302 303 303 304 306 309 310 315 321 325 325 324 323 321 319 317 315 314 313 314 315 311 304 298 297 300 303 304 305 304 302 301 301 301 302 303 303 303 304
267 268 268 267 268 266 263 264 264 262 258 255 259 269 277 281 282 279 276 273 271 269 270 271 273 278 282 284 285 286 288 290 290 291 293 295 298 301 301 301 302 301 300 301 301 301 303 305 306 308 311 312 312 315 321 322 321 319 317 315 313 313 314 313 313 312 306 299 297 300 305 309 310 310 310 310 307 306 306 305 305 305 305 306 308
269 269 270 272 273 270 265 263 263 259 253 252 259 270 277 279 278 276 274 271 269 269 269 271 275 279 282 282 283 285 287 288 289 291 294 297 299 300 301 302 303 302 301 301 302 303 306 307 307 307 308 306 306 311 316 316 315 316 317 315 313 311 308 307 306 304 301 300 304 309 312 312 312 312 313 313 312 312 312 310 308 307 307 309 313
267 268 271 275 275 269 262 261 261 256 250 251 259 269 274 275 273 272 270 269 268 268 269 272 276 279 280 281 282 284 285 286 288 292 296 299 301 300 299 300 301 301 301 300 300 300 301 301 299 300 300 299 302 307 311 311 315 320 319 314 309 307 307 306 305 305 305 308 311 313 313 314 314 313 314 315 316 315 314 312 311 309 308 311 315